This is the latest recevied weather packets stored in our database for station/object KD5HIA. If no packets are shown the sender has not sent any weather packets the latest 10 day(s).
| Time | Temp. | Humidity | Pressure | Rain* | Wind** | Luminosity | Snow |
|---|---|---|---|---|---|---|---|
| 1777986017 | 20.56° C | 86% | 1007.7 hPa | 0 mm | - | 73 W/m² | - |
| 1777985417 | 20° C | 86% | 1007.6 hPa | 0 mm | - | 64 W/m² | - |
| 1777984817 | 20° C | 86% | 1007.5 hPa | 0 mm | - | 45 W/m² | - |
| 1777984217 | 20° C | 86% | 1007.5 hPa | 0 mm | - | 31 W/m² | - |
| 1777983617 | 20° C | 86% | 1007.6 hPa | 0 mm | - | 23 W/m² | - |
| 1777983017 | 20° C | 85% | 1007.4 hPa | 0 mm | - | 12 W/m² | - |
| 1777982417 | 20° C | 84% | 1007.4 hPa | 0 mm | - | 0 W/m² | - |
| 1777981817 | 20° C | 84% | 1007.2 hPa | 0 mm | - | 0 W/m² | - |
| 1777981217 | 20° C | 84% | 1007.1 hPa | 0 mm | - | 0 W/m² | - |
| 1777980617 | 20° C | 84% | 1007 hPa | 0 mm | - | 0 W/m² | - |
| 1777980017 | 20° C | 83% | 1007.2 hPa | 0 mm | - | 0 W/m² | - |
| 1777979417 | 20° C | 83% | 1007 hPa | 0 mm | - | 0 W/m² | - |
| 1777978817 | 20.56° C | 81% | 1007 hPa | 0 mm | - | 0 W/m² | - |
| 1777978217 | 20° C | 81% | 1006.7 hPa | 0 mm | - | 0 W/m² | - |
| 1777977617 | 20° C | 81% | 1006.8 hPa | 0 mm | - | 0 W/m² | - |
| 1777977018 | 20° C | 82% | 1006.9 hPa | 0 mm | - | 0 W/m² | - |
| 1777976417 | 20° C | 81% | 1007 hPa | 0 mm | - | 0 W/m² | - |
| 1777975817 | 20° C | 81% | 1006.9 hPa | 0 mm | - | 0 W/m² | - |
| 1777975217 | 20.56° C | 80% | 1006.8 hPa | 0 mm | - | 0 W/m² | - |
| 1777974616 | 20.56° C | 79% | 1007 hPa | 0 mm | - | 0 W/m² | - |
| 1777974017 | 20.56° C | 79% | 1007.1 hPa | 0 mm | - | 0 W/m² | - |
| 1777973417 | 20.56° C | 79% | 1007 hPa | 0 mm | - | 0 W/m² | - |
| 1777972817 | 20.56° C | 79% | 1006.9 hPa | 0 mm | - | 0 W/m² | - |
| 1777972217 | 20.56° C | 78% | 1006.9 hPa | 0 mm | - | 0 W/m² | - |
| 1777971617 | 21.11° C | 78% | 1007 hPa | 0 mm | - | 0 W/m² | - |
* Rain latest hour (hover to see other rain measurements)
** Current wind speed in m/s (hover to see current wind gust speed)